| time (UTC) | temp C | wind direction | speed KPH | gust KPH | rain 1hr cm | rain 24hr cm | rain mn cm | humidity % | barometer mb |
| 20260904210036 | 21 | 0 | 0.0 | 3.2 | 0.00 | 0.00 | 0.00 | 90 | 1016.1 |
| 20260904205525 | 21 | 0 | 0.0 | 3.2 | 0.00 | 0.00 | 0.00 | 90 | 1016.0 |
| 20260904205021 | 22 | 0 | 0.0 | 3.2 | 0.00 | 0.00 | 0.00 | 91 | 1016.0 |
| 20260904204537 | 22 | 0 | 0.0 | 4.8 | 0.00 | 0.00 | 0.00 | 91 | 1015.9 |
| 20260904204020 | 22 | 0 | 0.0 | 4.8 | 0.00 | 0.00 | 0.00 | 91 | 1015.8 |
| 20260904203519 | 22 | 0 | 0.0 | 3.2 | 0.00 | 0.00 | 0.00 | 90 | 1015.9 |
| 20260904203037 | 22 | 271 | 0.0 | 3.2 | 0.00 | 0.00 | 0.00 | 91 | 1015.8 |
| 20260904202518 | 22 | 0 | 0.0 | 1.6 | 0.00 | 0.00 | 0.00 | 90 | 1015.8 |
| 20260904202017 | 22 | 0 | 0.0 | 1.6 | 0.00 | 0.00 | 0.00 | 90 | 1015.8 |
| 20260904201534 | 22 | 0 | 0.0 | 4.8 | 0.00 | 0.00 | 0.00 | 90 | 1015.8 |
| 20260904201017 | 22 | 0 | 0.0 | 6.4 | 0.00 | 0.00 | 0.00 | 90 | 1015.8 |
| 20260904200521 | 22 | 0 | 0.0 | 6.4 | 0.00 | 0.00 | 0.00 | 90 | 1015.9 |
| 20260904200036 | 22 | 0 | 0.0 | 6.4 | 0.00 | 0.00 | 0.00 | 89 | 1015.9 |
| 20260904195521 | 22 | 0 | 0.0 | 3.2 | 0.00 | 0.00 | 0.00 | 89 | 1015.9 |
| 20260904195019 | 22 | 0 | 0.0 | 3.2 | 0.00 | 0.00 | 0.00 | 90 | 1015.8 |
| 20260904194539 | 22 | 0 | 0.0 | 3.2 | 0.00 | 0.00 | 0.00 | 90 | 1015.7 |
| 20260904194020 | 22 | 0 | 0.0 | 3.2 | 0.00 | 0.00 | 0.00 | 91 | 1015.8 |
| 20260904193519 | 22 | 0 | 0.0 | 3.2 | 0.00 | 0.00 | 0.00 | 91 | 1015.8 |
| 20260904193034 | 22 | 0 | 0.0 | 3.2 | 0.00 | 0.00 | 0.00 | 90 | 1015.6 |
| 20260904192517 | 22 | 0 | 0.0 | 4.8 | 0.00 | 0.00 | 0.00 | 91 | 1015.7 |
| 20260904192020 | 22 | 0 | 0.0 | 4.8 | 0.00 | 0.00 | 0.00 | 91 | 1015.7 |
| 20260904191535 | 22 | 0 | 0.0 | 4.8 | 0.00 | 0.00 | 0.00 | 90 | 1015.7 |
| 20260904191020 | 22 | 0 | 0.0 | 3.2 | 0.00 | 0.00 | 0.00 | 90 | 1015.7 |
| 20260904190520 | 22 | 0 | 0.0 | 3.2 | 0.00 | 0.00 | 0.00 | 90 | 1015.6 |
| 20260904190035 | 22 | 0 | 0.0 | 6.4 | 0.00 | 0.00 | 0.00 | 89 | 1015.6 |
| 20260904185519 | 22 | 0 | 0.0 | 6.4 | 0.00 | 0.00 | 0.00 | 89 | 1015.5 |
| 20260904185018 | 23 | 0 | 0.0 | 6.4 | 0.00 | 0.00 | 0.00 | 89 | 1015.4 |
| 20260904184538 | 23 | 0 | 0.0 | 6.4 | 0.00 | 0.00 | 0.00 | 89 | 1015.4 |
| 20260904184017 | 23 | 0 | 0.0 | 4.8 | 0.00 | 0.00 | 0.00 | 89 | 1015.3 |
| 20260904183521 | 23 | 0 | 0.0 | 4.8 | 0.00 | 0.00 | 0.00 | 89 | 1015.3 |
| 20260904183040 | 22 | 0 | 0.0 | 6.4 | 0.00 | 0.00 | 0.00 | 89 | 1015.2 |
| 20260904182520 | 23 | 0 | 0.0 | 6.4 | 0.00 | 0.00 | 0.00 | 89 | 1015.3 |
| 20260904182025 | 23 | 311 | 0.0 | 6.4 | 0.00 | 0.00 | 0.00 | 89 | 1015.3 |
| 20260904181552 | 22 | 0 | 0.0 | 4.8 | 0.00 | 0.00 | 0.00 | 91 | 1015.3 |
| 20260904181021 | 22 | 0 | 0.0 | 4.8 | 0.00 | 0.00 | 0.00 | 92 | 1015.3 |
| 20260904180522 | 22 | 0 | 0.0 | 4.8 | 0.00 | 0.00 | 0.00 | 91 | 1015.3 |
| 20260904180039 | 22 | 352 | 0.0 | 4.8 | 0.00 | 0.00 | 0.00 | 92 | 1015.3 |
| 20260904175516 | 22 | 0 | 0.0 | 0.0 | 0.00 | 0.00 | 0.00 | 93 | 1015.3 |
| 20260904175018 | 22 | 0 | 0.0 | 3.2 | 0.00 | 0.00 | 0.00 | 94 | 1015.3 |
| 20260904174534 | 22 | 0 | 0.0 | 3.2 | 0.00 | 0.00 | 0.00 | 94 | 1015.2 |
| 20260904174021 | 21 | 0 | 0.0 | 0.0 | 0.00 | 0.00 | 0.00 | 95 | 1015.2 |
| 20260904173520 | 21 | 0 | 0.0 | 0.0 | 0.00 | 0.00 | 0.00 | 95 | 1015.3 |
| 20260904173036 | 21 | 0 | 0.0 | 0.0 | 0.00 | 0.00 | 0.00 | 96 | 1015.2 |
| 20260904172520 | 21 | 0 | 0.0 | 1.6 | 0.00 | 0.00 | 0.00 | 95 | 1015.2 |
| 20260904172025 | 21 | 0 | 0.0 | 1.6 | 0.00 | 0.00 | 0.00 | 95 | 1015.2 |
| 20260904171540 | 21 | 0 | 0.0 | 0.0 | 0.00 | 0.00 | 0.00 | 96 | 1015.3 |
| 20260904171020 | 21 | 0 | 0.0 | 0.0 | 0.00 | 0.00 | 0.00 | 96 | 1015.2 |
| 20260904170516 | 21 | 0 | 0.0 | 0.0 | 0.00 | 0.00 | 0.00 | 96 | 1015.2 |
| 20260904170035 | 20 | 0 | 0.0 | 0.0 | 0.00 | 0.00 | 0.00 | 97 | 1015.2 |
| 20260904165522 | 20 | 0 | 0.0 | 1.6 | 0.00 | 0.00 | 0.00 | 97 | 1015.2 |
| 20260904165019 | 20 | 0 | 0.0 | 3.2 | 0.00 | 0.00 | 0.00 | 97 | 1015.2 |
| 20260904164541 | 20 | 0 | 0.0 | 3.2 | 0.00 | 0.00 | 0.00 | 97 | 1015.4 |
| 20260904164021 | 20 | 0 | 0.0 | 4.8 | 0.00 | 0.00 | 0.00 | 97 | 1015.4 |
| 20260904163522 | 20 | 0 | 1.6 | 4.8 | 0.00 | 0.00 | 0.00 | 98 | 1015.3 |
| 20260904163035 | 20 | 0 | 0.0 | 3.2 | 0.00 | 0.00 | 0.00 | 98 | 1015.3 |
| 20260904162520 | 20 | 0 | 0.0 | 3.2 | 0.00 | 0.00 | 0.00 | 98 | 1015.4 |
| 20260904162020 | 20 | 0 | 0.0 | 3.2 | 0.00 | 0.00 | 0.00 | 98 | 1015.4 |
| 20260904161535 | 20 | 323 | 0.0 | 4.8 | 0.00 | 0.00 | 0.00 | 98 | 1015.4 |
| 20260904161019 | 20 | 0 | 0.0 | 4.8 | 0.00 | 0.00 | 0.00 | 98 | 1015.4 |
| 20260904160519 | 19 | 0 | 0.0 | 3.2 | 0.00 | 0.00 | 0.00 | 98 | 1015.3 |
| 20260904160036 | 19 | 0 | 0.0 | 3.2 | 0.00 | 0.00 | 0.00 | 99 | 1015.5 |
| 20260904155516 | 19 | 0 | 0.0 | 3.2 | 0.00 | 0.00 | 0.00 | 99 | 1015.4 |
| 20260904155017 | 19 | 0 | 0.0 | 0.0 | 0.00 | 0.00 | 0.00 | 99 | 1015.4 |
| 20260904154545 | 19 | 0 | 0.0 | 0.0 | 0.00 | 0.00 | 0.00 | 99 | 1015.3 |
| 20260904154023 | 19 | 0 | 0.0 | 1.6 | 0.00 | 0.00 | 0.00 | 98 | 1015.2 |
| 20260904153520 | 19 | 0 | 0.0 | 1.6 | 0.00 | 0.00 | 0.00 | 98 | 1015.2 |
| 20260904153036 | 19 | 0 | 0.0 | 1.6 | 0.00 | 0.00 | 0.00 | 99 | 1015.1 |
| 20260904152524 | 19 | 0 | 0.0 | 3.2 | 0.00 | 0.00 | 0.00 | 99 | 1015.1 |
| 20260904152019 | 19 | 0 | 0.0 | 3.2 | 0.00 | 0.00 | 0.00 | 99 | 1015.1 |
| 20260904151538 | 18 | 0 | 0.0 | 3.2 | 0.00 | 0.00 | 0.00 | 99 | 1015.0 |
| 20260904151017 | 18 | 0 | 0.0 | 3.2 | 0.00 | 0.00 | 0.00 | 99 | 1015.0 |
| 20260904150518 | 18 | 0 | 0.0 | 1.6 | 0.00 | 0.00 | 0.00 | 99 | 1015.0 |
| 20260904150035 | 18 | 0 | 0.0 | 1.6 | 0.00 | 0.00 | 0.00 | 99 | 1014.9 |
| 20260904145516 | 18 | 0 | 0.0 | 1.6 | 0.00 | 0.00 | 0.00 | 99 | 1014.8 |
| 20260904145020 | 18 | 0 | 0.0 | 1.6 | 0.00 | 0.00 | 0.00 | 99 | 1014.7 |
| 20260904144535 | 18 | 0 | 0.0 | 1.6 | 0.00 | 0.00 | 0.00 | 98 | 1014.7 |
| 20260904144024 | 18 | 0 | 0.0 | 3.2 | 0.00 | 0.00 | 0.00 | 98 | 1014.6 |
| 20260904143520 | 18 | 0 | 0.0 | 3.2 | 0.00 | 0.00 | 0.00 | 99 | 1014.6 |
| 20260904143036 | 18 | 0 | 0.0 | 3.2 | 0.00 | 0.00 | 0.00 | 99 | 1014.5 |
| 20260904142520 | 18 | 0 | 0.0 | 1.6 | 0.00 | 0.00 | 0.00 | 98 | 1014.4 |
| 20260904142028 | 18 | 0 | 0.0 | 1.6 | 0.00 | 0.00 | 0.00 | 98 | 1014.4 |
| 20260904141542 | 18 | 0 | 0.0 | 1.6 | 0.00 | 0.00 | 0.00 | 98 | 1014.3 |
| 20260904141020 | 18 | 0 | 0.0 | 1.6 | 0.00 | 0.00 | 0.00 | 98 | 1014.3 |
| 20260904140519 | 18 | 0 | 0.0 | 1.6 | 0.00 | 0.00 | 0.00 | 98 | 1014.4 |
| 20260904140044 | 18 | 0 | 0.0 | 3.2 | 0.00 | 0.00 | 0.00 | 98 | 1014.3 |
| 20260904135521 | 19 | 0 | 0.0 | 4.8 | 0.00 | 0.00 | 0.00 | 98 | 1014.2 |
| 20260904135020 | 19 | 0 | 1.6 | 4.8 | 0.00 | 0.00 | 0.00 | 98 | 1014.2 |
| 20260904134534 | 20 | 323 | 0.0 | 0.0 | 0.00 | 0.00 | 0.00 | 99 | 1014.1 |
| 20260904134017 | 20 | 0 | 0.0 | 0.0 | 0.00 | 0.00 | 0.00 | 99 | 1014.1 |
| 20260904133522 | 20 | 0 | 0.0 | 0.0 | 0.00 | 0.00 | 0.00 | 99 | 1014.1 |
| 20260904133037 | 20 | 0 | 0.0 | 0.0 | 0.00 | 0.00 | 0.00 | 99 | 1014.0 |
| 20260904132520 | 20 | 0 | 0.0 | 4.8 | 0.00 | 0.00 | 0.00 | 99 | 1013.9 |
| 20260904132020 | 20 | 0 | 0.0 | 4.8 | 0.00 | 0.00 | 0.00 | 99 | 1013.8 |
| 20260904131533 | 20 | 0 | 1.6 | 4.8 | 0.00 | 0.00 | 0.00 | 99 | 1013.8 |
| 20260904131022 | 20 | 145 | 0.0 | 3.2 | 0.00 | 0.00 | 0.00 | 99 | 1013.7 |
| 20260904130519 | 20 | 0 | 0.0 | 11.3 | 0.00 | 0.00 | 0.00 | 99 | 1013.6 |
| 20260904130035 | 20 | 0 | 1.6 | 11.3 | 0.00 | 0.00 | 0.00 | 99 | 1013.6 |
| 20260904125518 | 20 | 134 | 4.8 | 11.3 | 0.00 | 0.00 | 0.00 | 99 | 1013.4 |
| 20260904125016 | 20 | 167 | 3.2 | 12.9 | 0.00 | 0.00 | 0.00 | 99 | 1013.4 |
| 20260904124535 | 20 | 148 | 3.2 | 12.9 | 0.00 | 0.00 | 0.00 | 99 | 1013.3 |
| 20260904124016 | 20 | 0 | 3.2 | 12.9 | 0.00 | 0.00 | 0.00 | 99 | 1013.2 |
| 20260904123522 | 20 | 116 | 4.8 | 8.0 | 0.00 | 0.00 | 0.00 | 99 | 1013.1 |
| 20260904123035 | 20 | 151 | 1.6 | 6.4 | 0.00 | 0.00 | 0.00 | 99 | 1013.1 |
| 20260904122523 | 20 | 132 | 1.6 | 6.4 | 0.00 | 0.00 | 0.00 | 99 | 1013.0 |
| 20260904122020 | 20 | 123 | 1.6 | 6.4 | 0.00 | 0.00 | 0.00 | 99 | 1012.9 |
| 20260904121534 | 20 | 123 | 0.0 | 6.4 | 0.00 | 0.00 | 0.00 | 99 | 1012.9 |
| 20260904121020 | 20 | 123 | 1.6 | 6.4 | 0.00 | 0.00 | 0.00 | 99 | 1012.8 |
| 20260904120520 | 20 | 116 | 3.2 | 6.4 | 0.00 | 0.00 | 0.00 | 99 | 1012.8 |
| 20260904120046 | 20 | 142 | 3.2 | 6.4 | 0.00 | 0.00 | 0.00 | 99 | 1012.7 |
| 20260904115518 | 19 | 123 | 1.6 | 6.4 | 0.00 | 0.00 | 0.00 | 98 | 1012.7 |
| 20260904115017 | 19 | 123 | 1.6 | 6.4 | 0.00 | 0.00 | 0.00 | 98 | 1012.7 |
| 20260904114536 | 19 | 123 | 0.0 | 4.8 | 0.00 | 0.00 | 0.00 | 98 | 1012.8 |
| 20260904114020 | 19 | 123 | 1.6 | 4.8 | 0.00 | 0.00 | 0.00 | 98 | 1012.8 |
| 20260904113520 | 19 | 123 | 1.6 | 6.4 | 0.00 | 0.00 | 0.00 | 98 | 1012.6 |
| 20260904113041 | 19 | 0 | 1.6 | 6.4 | 0.00 | 0.00 | 0.00 | 98 | 1012.7 |
| 20260904112520 | 19 | 105 | 1.6 | 9.7 | 0.00 | 0.00 | 0.00 | 98 | 1012.6 |
| 20260904112019 | 19 | 126 | 3.2 | 9.7 | 0.00 | 0.00 | 0.00 | 98 | 1012.6 |
| 20260904111537 | 19 | 128 | 3.2 | 8.0 | 0.00 | 0.00 | 0.00 | 98 | 1012.5 |
| 20260904111021 | 19 | 112 | 3.2 | 8.0 | 0.00 | 0.00 | 0.00 | 98 | 1012.6 |
| 20260904110520 | 18 | 157 | 1.6 | 8.0 | 0.00 | 0.00 | 0.00 | 98 | 1012.5 |
| 20260904110033 | 18 | 148 | 3.2 | 8.0 | 0.00 | 0.00 | 0.00 | 98 | 1012.5 |
| 20260904105520 | 18 | 0 | 1.6 | 8.0 | 0.00 | 0.00 | 0.00 | 98 | 1012.5 |
| 20260904105017 | 18 | 128 | 1.6 | 4.8 | 0.00 | 0.00 | 0.00 | 98 | 1012.4 |
| 20260904104548 | 18 | 0 | 0.0 | 4.8 | 0.00 | 0.00 | 0.00 | 97 | 1012.5 |
| 20260904104019 | 18 | 0 | 0.0 | 0.0 | 0.00 | 0.00 | 0.00 | 97 | 1012.7 |
| 20260904103515 | 18 | 0 | 0.0 | 0.0 | 0.00 | 0.00 | 0.00 | 97 | 1012.8 |
| 20260904103034 | 18 | 0 | 0.0 | 1.6 | 0.00 | 0.00 | 0.00 | 97 | 1013.0 |
| 20260904102518 | 18 | 0 | 0.0 | 3.2 | 0.00 | 0.00 | 0.00 | 96 | 1013.0 |
| 20260904102024 | 18 | 0 | 0.0 | 3.2 | 0.00 | 0.00 | 0.00 | 96 | 1013.0 |
| 20260904101533 | 18 | 128 | 0.0 | 4.8 | 0.00 | 0.00 | 0.00 | 97 | 1013.0 |
| 20260904101021 | 18 | 0 | 0.0 | 6.4 | 0.00 | 0.00 | 0.00 | 97 | 1012.8 |
| 20260904100521 | 18 | 128 | 0.0 | 6.4 | 0.00 | 0.00 | 0.00 | 97 | 1012.7 |
| 20260904100037 | 18 | 128 | 0.0 | 6.4 | 0.00 | 0.00 | 0.00 | 97 | 1012.8 |
| 20260904095523 | 18 | 0 | 0.0 | 6.4 | 0.00 | 0.00 | 0.00 | 97 | 1012.9 |
| 20260904095019 | 18 | 0 | 0.0 | 6.4 | 0.00 | 0.00 | 0.00 | 97 | 1012.8 |
| 20260904094536 | 18 | 146 | 1.6 | 8.0 | 0.00 | 0.00 | 0.00 | 97 | 1012.8 |
| 20260904094016 | 18 | 139 | 3.2 | 8.0 | 0.00 | 0.00 | 0.00 | 97 | 1012.9 |
| 20260904093518 | 18 | 132 | 3.2 | 11.3 | 0.00 | 0.00 | 0.00 | 98 | 1013.0 |
| 20260904093033 | 18 | 138 | 3.2 | 11.3 | 0.00 | 0.00 | 0.00 | 98 | 1012.6 |
| 20260904092519 | 18 | 140 | 0.0 | 3.2 | 0.00 | 0.00 | 0.00 | 97 | 1013.2 |
| 20260904092020 | 18 | 0 | 0.0 | 3.2 | 0.00 | 0.00 | 0.00 | 97 | 1013.6 |
| 20260904091537 | 18 | 187 | 0.0 | 3.2 | 0.00 | 0.00 | 0.00 | 97 | 1013.5 |
| 20260904091017 | 18 | 0 | 0.0 | 8.0 | 0.00 | 0.00 | 0.00 | 97 | 1013.4 |
| 20260904090516 | 18 | 0 | 0.0 | 8.0 | 0.00 | 0.00 | 0.00 | 96 | 1013.8 |
| 20260904090036 | 18 | 0 | 1.6 | 6.4 | 0.00 | 0.00 | 0.00 | 97 | 1014.3 |
| 20260904085521 | 18 | 339 | 1.6 | 6.4 | 0.00 | 0.00 | 0.00 | 97 | 1014.7 |
| 20260904085020 | 18 | 0 | 0.0 | 0.0 | 0.00 | 0.00 | 0.00 | 97 | 1013.6 |
| 20260904084539 | 18 | 0 | 0.0 | 0.0 | 0.00 | 0.00 | 0.00 | 97 | 1013.6 |
| 20260904084020 | 18 | 0 | 0.0 | 0.0 | 0.00 | 0.00 | 0.00 | 97 | 1013.4 |
| 20260904083519 | 18 | 0 | 0.0 | 0.0 | 0.00 | 0.00 | 0.00 | 97 | 1013.3 |
| 20260904083037 | 18 | 0 | 0.0 | 0.0 | 0.00 | 0.00 | 0.00 | 97 | 1013.3 |
| 20260904082518 | 18 | 0 | 0.0 | 0.0 | 0.00 | 0.00 | 0.00 | 97 | 1013.1 |
| 20260904082018 | 18 | 0 | 0.0 | 0.0 | 0.00 | 0.00 | 0.00 | 97 | 1013.1 |
| 20260904081535 | 18 | 0 | 0.0 | 0.0 | 0.00 | 0.00 | 0.00 | 97 | 1013.1 |
| 20260904081018 | 18 | 0 | 0.0 | 0.0 | 0.00 | 0.00 | 0.00 | 97 | 1013.0 |
| 20260904080516 | 18 | 0 | 0.0 | 0.0 | 0.00 | 0.00 | 0.00 | 97 | 1012.7 |
| 20260904080036 | 18 | 0 | 0.0 | 0.0 | 0.00 | 0.00 | 0.00 | 97 | 1012.7 |
| 20260904075521 | 18 | 0 | 0.0 | 0.0 | 0.00 | 0.00 | 0.00 | 97 | 1012.8 |
| 20260904075021 | 18 | 0 | 0.0 | 0.0 | 0.00 | 0.00 | 0.00 | 97 | 1012.8 |
| 20260904074534 | 18 | 0 | 0.0 | 0.0 | 0.00 | 0.00 | 0.00 | 97 | 1013.0 |
| 20260904074019 | 18 | 0 | 0.0 | 0.0 | 0.00 | 0.00 | 0.00 | 97 | 1012.9 |
| 20260904073518 | 17 | 0 | 0.0 | 0.0 | 0.00 | 0.00 | 0.00 | 97 | 1012.9 |
| 20260904073037 | 18 | 0 | 0.0 | 0.0 | 0.00 | 0.00 | 0.00 | 97 | 1012.8 |
| 20260904072517 | 17 | 0 | 0.0 | 0.0 | 0.00 | 0.00 | 0.00 | 97 | 1012.9 |
| 20260904072020 | 17 | 0 | 0.0 | 0.0 | 0.00 | 0.00 | 0.00 | 97 | 1012.8 |
| 20260904071542 | 17 | 0 | 0.0 | 0.0 | 0.00 | 0.00 | 0.00 | 97 | 1012.7 |
| 20260904071020 | 17 | 0 | 0.0 | 0.0 | 0.00 | 0.00 | 0.00 | 97 | 1012.8 |
| 20260904070520 | 17 | 0 | 0.0 | 3.2 | 0.00 | 0.00 | 0.00 | 97 | 1012.9 |
| 20260904070036 | 17 | 0 | 0.0 | 3.2 | 0.00 | 0.00 | 0.00 | 97 | 1012.9 |
| 20260904065521 | 17 | 190 | 0.0 | 3.2 | 0.00 | 0.00 | 0.00 | 96 | 1013.2 |
| 20260904065020 | 17 | 0 | 0.0 | 0.0 | 0.00 | 0.00 | 0.00 | 96 | 1013.5 |
| 20260904064538 | 17 | 0 | 0.0 | 0.0 | 0.00 | 0.00 | 0.00 | 96 | 1013.4 |
| 20260904064018 | 18 | 0 | 0.0 | 3.2 | 0.00 | 0.00 | 0.00 | 96 | 1013.5 |
| 20260904063518 | 18 | 0 | 0.0 | 3.2 | 0.00 | 0.00 | 0.00 | 97 | 1013.4 |
| 20260904063038 | 18 | 0 | 0.0 | 4.8 | 0.00 | 0.00 | 0.00 | 97 | 1013.5 |
| 20260904062519 | 18 | 0 | 0.0 | 4.8 | 0.00 | 0.00 | 0.00 | 97 | 1013.5 |
| 20260904062019 | 18 | 0 | 0.0 | 3.2 | 0.00 | 0.00 | 0.00 | 96 | 1013.5 |
| 20260904061540 | 18 | 0 | 0.0 | 3.2 | 0.00 | 0.00 | 0.00 | 96 | 1013.7 |
| 20260904061021 | 18 | 0 | 0.0 | 3.2 | 0.00 | 0.00 | 0.00 | 95 | 1013.9 |
| 20260904060521 | 18 | 0 | 0.0 | 1.6 | 0.00 | 0.00 | 0.00 | 95 | 1014.1 |
| 20260904060038 | 18 | 0 | 0.0 | 3.2 | 0.00 | 0.00 | 0.00 | 95 | 1014.2 |
| 20260904055517 | 18 | 0 | 0.0 | 4.8 | 0.00 | 0.00 | 0.00 | 95 | 1014.3 |
| 20260904055015 | 18 | 0 | 0.0 | 4.8 | 0.00 | 0.00 | 0.00 | 95 | 1014.2 |
| 20260904054540 | 18 | 190 | 0.0 | 3.2 | 0.00 | 0.00 | 0.00 | 95 | 1014.0 |
| 20260904054023 | 18 | 0 | 0.0 | 1.6 | 0.00 | 0.00 | 0.00 | 95 | 1014.0 |
| 20260904053521 | 18 | 0 | 0.0 | 4.8 | 0.00 | 0.00 | 0.00 | 94 | 1014.1 |
| 20260904053040 | 18 | 0 | 0.0 | 4.8 | 0.00 | 0.00 | 0.00 | 95 | 1014.3 |
| 20260904052517 | 18 | 0 | 0.0 | 3.2 | 0.00 | 0.00 | 0.00 | 95 | 1014.2 |
| 20260904052016 | 18 | 0 | 0.0 | 3.2 | 0.00 | 0.00 | 0.00 | 94 | 1014.4 |
| 20260904051535 | 18 | 0 | 0.0 | 1.6 | 0.00 | 0.00 | 0.00 | 94 | 1014.4 |
| 20260904051019 | 18 | 0 | 0.0 | 3.2 | 0.00 | 0.00 | 0.00 | 94 | 1014.3 |
| 20260904050524 | 18 | 0 | 0.0 | 3.2 | 0.00 | 0.00 | 0.00 | 94 | 1014.2 |
| 20260904050037 | 18 | 0 | 0.0 | 3.2 | 0.00 | 0.00 | 0.00 | 94 | 1014.2 |
| 20260904045524 | 18 | 0 | 0.0 | 3.2 | 0.00 | 0.00 | 0.00 | 94 | 1014.2 |
| 20260904045019 | 18 | 0 | 0.0 | 12.9 | 0.00 | 0.00 | 0.00 | 94 | 1014.2 |
| 20260904044536 | 18 | 0 | 1.6 | 12.9 | 0.00 | 0.00 | 0.00 | 94 | 1014.3 |
| 20260904044016 | 18 | 350 | 3.2 | 12.9 | 0.00 | 0.00 | 0.00 | 93 | 1014.4 |
| 20260904043520 | 18 | 0 | 0.0 | 6.4 | 0.00 | 0.00 | 0.00 | 94 | 1014.5 |
| 20260904043037 | 18 | 290 | 1.6 | 6.4 | 0.00 | 0.00 | 0.00 | 94 | 1014.5 |
| 20260904042521 | 18 | 0 | 0.0 | 0.0 | 0.00 | 0.00 | 0.00 | 95 | 1014.3 |
| 20260904042022 | 18 | 0 | 0.0 | 3.2 | 0.00 | 0.00 | 0.00 | 94 | 1014.1 |
| 20260904041537 | 18 | 0 | 0.0 | 3.2 | 0.00 | 0.00 | 0.00 | 94 | 1014.0 |
| 20260904041016 | 18 | 298 | 0.0 | 6.4 | 0.00 | 0.00 | 0.00 | 94 | 1013.8 |
| 20260904040517 | 18 | 0 | 0.0 | 6.4 | 0.00 | 0.00 | 0.00 | 94 | 1013.7 |
| 20260904040039 | 18 | 283 | 1.6 | 6.4 | 0.00 | 0.00 | 0.00 | 94 | 1013.8 |
| 20260904035522 | 18 | 334 | 1.6 | 6.4 | 0.00 | 0.00 | 0.00 | 94 | 1013.6 |
| 20260904035021 | 18 | 0 | 0.0 | 4.8 | 0.00 | 0.00 | 0.00 | 95 | 1013.7 |
| 20260904034536 | 18 | 0 | 0.0 | 0.0 | 0.00 | 0.00 | 0.00 | 94 | 1013.5 |
| 20260904034019 | 18 | 0 | 0.0 | 0.0 | 0.00 | 0.00 | 0.00 | 94 | 1013.4 |
| 20260904033520 | 18 | 0 | 0.0 | 0.0 | 0.00 | 0.00 | 0.00 | 94 | 1013.5 |
| 20260904033038 | 18 | 0 | 0.0 | 0.0 | 0.00 | 0.00 | 0.00 | 94 | 1013.7 |
| 20260904032518 | 18 | 0 | 0.0 | 0.0 | 0.00 | 0.00 | 0.00 | 93 | 1013.7 |
| 20260904032018 | 18 | 0 | 0.0 | 0.0 | 0.00 | 0.00 | 0.00 | 93 | 1013.8 |
| 20260904031536 | 18 | 0 | 0.0 | 0.0 | 0.00 | 0.00 | 0.00 | 93 | 1014.0 |
| 20260904031020 | 18 | 0 | 0.0 | 1.6 | 0.00 | 0.00 | 0.00 | 93 | 1014.0 |
| 20260904030522 | 18 | 0 | 0.0 | 1.6 | 0.00 | 0.00 | 0.00 | 93 | 1014.0 |
| 20260904030034 | 18 | 0 | 0.0 | 1.6 | 0.00 | 0.00 | 0.00 | 93 | 1013.9 |
| 20260904025522 | 18 | 0 | 0.0 | 0.0 | 0.00 | 0.00 | 0.00 | 94 | 1013.9 |
| 20260904025021 | 18 | 0 | 0.0 | 0.0 | 0.00 | 0.00 | 0.00 | 93 | 1013.7 |
| 20260904024538 | 18 | 0 | 0.0 | 3.2 | 0.00 | 0.00 | 0.00 | 93 | 1013.6 |
| 20260904024021 | 18 | 0 | 0.0 | 3.2 | 0.00 | 0.00 | 0.00 | 93 | 1013.6 |
| 20260904023520 | 18 | 0 | 0.0 | 3.2 | 0.00 | 0.00 | 0.00 | 92 | 1013.6 |
| 20260904023036 | 18 | 327 | 0.0 | 3.2 | 0.00 | 0.00 | 0.00 | 91 | 1013.5 |
| 20260904022518 | 19 | 0 | 0.0 | 0.0 | 0.00 | 0.00 | 0.00 | 92 | 1013.3 |
| 20260904022021 | 19 | 0 | 0.0 | 0.0 | 0.00 | 0.00 | 0.00 | 91 | 1013.3 |
| 20260904021548 | 20 | 0 | 0.0 | 0.0 | 0.00 | 0.00 | 0.00 | 89 | 1013.2 |
| 20260904021022 | 20 | 0 | 0.0 | 0.0 | 0.00 | 0.00 | 0.00 | 89 | 1013.2 |
| 20260904020521 | 20 | 0 | 0.0 | 3.2 | 0.00 | 0.00 | 0.00 | 88 | 1013.2 |
| 20260904020036 | 20 | 0 | 0.0 | 3.2 | 0.00 | 0.00 | 0.00 | 88 | 1013.1 |
| 20260904015519 | 20 | 174 | 0.0 | 3.2 | 0.00 | 0.00 | 0.00 | 87 | 1013.4 |
| 20260904015022 | 20 | 0 | 0.0 | 0.0 | 0.00 | 0.00 | 0.00 | 87 | 1013.5 |
| 20260904014539 | 20 | 0 | 0.0 | 4.8 | 0.00 | 0.00 | 0.00 | 87 | 1013.6 |
| 20260904014020 | 20 | 0 | 0.0 | 4.8 | 0.00 | 0.00 | 0.00 | 87 | 1013.5 |
| 20260904013520 | 20 | 0 | 0.0 | 4.8 | 0.00 | 0.00 | 0.00 | 86 | 1013.6 |
| 20260904013033 | 20 | 0 | 0.0 | 3.2 | 0.00 | 0.00 | 0.00 | 84 | 1013.8 |
| 20260904012521 | 20 | 0 | 0.0 | 0.0 | 0.00 | 0.00 | 0.00 | 84 | 1013.7 |
| 20260904012022 | 20 | 0 | 0.0 | 0.0 | 0.00 | 0.00 | 0.00 | 83 | 1013.5 |
| 20260904011548 | 20 | 0 | 0.0 | 0.0 | 0.00 | 0.00 | 0.00 | 82 | 1013.7 |
| 20260904011020 | 20 | 0 | 0.0 | 0.0 | 0.00 | 0.00 | 0.00 | 83 | 1013.6 |
| 20260904010521 | 20 | 0 | 0.0 | 0.0 | 0.00 | 0.00 | 0.00 | 82 | 1013.7 |
| 20260904010036 | 21 | 0 | 0.0 | 0.0 | 0.00 | 0.00 | 0.00 | 81 | 1013.7 |
| 20260904005523 | 21 | 0 | 0.0 | 0.0 | 0.00 | 0.00 | 0.00 | 81 | 1013.6 |
| 20260904005019 | 21 | 0 | 0.0 | 0.0 | 0.00 | 0.00 | 0.00 | 81 | 1013.4 |
| 20260904004537 | 21 | 0 | 0.0 | 0.0 | 0.00 | 0.00 | 0.00 | 80 | 1013.6 |
| 20260904004019 | 21 | 0 | 0.0 | 0.0 | 0.00 | 0.00 | 0.00 | 80 | 1013.6 |
| 20260904003520 | 21 | 0 | 0.0 | 0.0 | 0.00 | 0.00 | 0.00 | 80 | 1013.7 |
| 20260904003035 | 21 | 0 | 0.0 | 3.2 | 0.00 | 0.00 | 0.00 | 80 | 1013.3 |
| 20260904002517 | 21 | 0 | 0.0 | 3.2 | 0.00 | 0.00 | 0.00 | 80 | 1013.5 |
| 20260904002020 | 22 | 307 | 0.0 | 1.6 | 0.00 | 0.00 | 0.00 | 80 | 1013.3 |
| 20260904001535 | 22 | 0 | 0.0 | 0.0 | 0.00 | 0.00 | 0.00 | 80 | 1013.3 |
| 20260904001020 | 22 | 0 | 0.0 | 0.0 | 0.00 | 0.00 | 0.00 | 79 | 1013.5 |
| 20260904000523 | 22 | 0 | 0.0 | 0.0 | 0.00 | 0.00 | 0.00 | 79 | 1013.6 |
| 20260904000039 | 22 | 0 | 0.0 | 3.2 | 0.00 | 0.00 | 0.00 | 79 | 1013.3 |
| 20260903235523 | 22 | 0 | 0.0 | 3.2 | 0.00 | 0.00 | 0.00 | 77 | 1013.4 |
| 20260903235022 | 22 | 0 | 0.0 | 1.6 | 0.00 | 0.00 | 0.00 | 77 | 1013.4 |
| 20260903234537 | 22 | 0 | 0.0 | 1.6 | 0.00 | 0.00 | 0.00 | 77 | 1013.3 |
| 20260903234016 | 22 | 0 | 0.0 | 3.2 | 0.00 | 0.00 | 0.00 | 78 | 1013.6 |
| 20260903233517 | 22 | 0 | 0.0 | 3.2 | 0.00 | 0.00 | 0.00 | 78 | 1013.2 |
| 20260903233035 | 22 | 307 | 0.0 | 3.2 | 0.00 | 0.00 | 0.00 | 77 | 1012.9 |
| 20260903232519 | 22 | 0 | 0.0 | 3.2 | 0.00 | 0.00 | 0.00 | 76 | 1013.2 |
| 20260903232018 | 23 | 0 | 0.0 | 1.6 | 0.00 | 0.00 | 0.00 | 75 | 1013.2 |
| 20260903231535 | 23 | 0 | 0.0 | 4.8 | 0.00 | 0.00 | 0.00 | 74 | 1013.1 |
| 20260903231016 | 23 | 0 | 0.0 | 4.8 | 0.00 | 0.00 | 0.00 | 73 | 1013.0 |
| 20260903230521 | 23 | 0 | 0.0 | 4.8 | 0.00 | 0.00 | 0.00 | 73 | 1012.9 |
| 20260903230038 | 24 | 0 | 0.0 | 3.2 | 0.00 | 0.00 | 0.00 | 73 | 1012.9 |
| 20260903225524 | 24 | 0 | 0.0 | 4.8 | 0.00 | 0.00 | 0.00 | 73 | 1012.7 |
| 20260903225021 | 24 | 0 | 0.0 | 4.8 | 0.00 | 0.00 | 0.00 | 72 | 1012.8 |
| 20260903224537 | 24 | 0 | 0.0 | 3.2 | 0.00 | 0.00 | 0.00 | 72 | 1012.9 |
| 20260903224019 | 25 | 0 | 0.0 | 3.2 | 0.00 | 0.00 | 0.00 | 71 | 1013.1 |
| 20260903223518 | 25 | 0 | 0.0 | 4.8 | 0.00 | 0.00 | 0.00 | 70 | 1013.0 |
| 20260903223042 | 25 | 0 | 0.0 | 6.4 | 0.00 | 0.00 | 0.00 | 69 | 1013.0 |
| 20260903222516 | 25 | 0 | 0.0 | 6.4 | 0.00 | 0.00 | 0.00 | 69 | 1012.9 |
| 20260903222018 | 26 | 320 | 0.0 | 6.4 | 0.00 | 0.00 | 0.00 | 69 | 1012.8 |
| 20260903221535 | 26 | 0 | 0.0 | 6.4 | 0.00 | 0.00 | 0.00 | 70 | 1012.8 |
| 20260903221021 | 26 | 0 | 1.6 | 6.4 | 0.00 | 0.00 | 0.00 | 68 | 1012.9 |
| 20260903220520 | 26 | 173 | 0.0 | 6.4 | 0.00 | 0.00 | 0.00 | 69 | 1012.7 |
| 20260903220052 | 26 | 0 | 0.0 | 4.8 | 0.00 | 0.00 | 0.00 | 70 | 1012.8 |
| 20260903215521 | 26 | 303 | 0.0 | 6.4 | 0.00 | 0.00 | 0.00 | 67 | 1012.8 |
| 20260903215020 | 27 | 146 | 0.0 | 6.4 | 0.00 | 0.00 | 0.00 | 69 | 1012.8 |
| 20260903214535 | 27 | 282 | 1.6 | 6.4 | 0.00 | 0.00 | 0.00 | 67 | 1012.8 |
| 20260903214017 | 27 | 0 | 0.0 | 4.8 | 0.00 | 0.00 | 0.00 | 69 | 1012.8 |
| 20260903213516 | 27 | 0 | 0.0 | 11.3 | 0.00 | 0.00 | 0.00 | 69 | 1012.8 |
| 20260903213036 | 27 | 0 | 0.0 | 11.3 | 0.00 | 0.00 | 0.00 | 69 | 1012.8 |
| 20260903212516 | 27 | 128 | 3.2 | 11.3 | 0.00 | 0.00 | 0.00 | 70 | 1012.7 |
| 20260903212019 | 27 | 185 | 0.0 | 6.4 | 0.00 | 0.00 | 0.00 | 73 | 1012.5 |
| 20260903211536 | 26 | 0 | 0.0 | 6.4 | 0.00 | 0.00 | 0.00 | 73 | 1012.7 |
| 20260903211020 | 26 | 185 | 3.2 | 6.4 | 0.00 | 0.00 | 0.00 | 76 | 1012.7 |
| 20260903210521 | 26 | 185 | 3.2 | 6.4 | 0.00 | 0.00 | 0.00 | 74 | 1012.6 |